Regional Weather Roundup
Issued by NWS Charleston, WV

Home | Current Version | Previous Version | Graphics & Text | Print | Product List | Glossary On
Versions: 1 2 3 4 5 6 7 8 9 10 11 12 13 14 15 16 17 18 19 20 21 22 23 24 25 26 27 28
000
ASUS41 KRLX 240310
RWRRLX
West Virginia Regional Weather Roundup
National Weather Service Charleston WV
1000 PM EST TUE JAN 23 2018

Note: "fair" indicates few or no clouds below 12,000 feet with no
significant weather and/or obstructions to visibility.

WVZ003-240400-
Northern Panhandle of West Virginia

CITY           SKY/WX    TMP DP  RH WIND       PRES   REMARKS
WHEELING       CLOUDY    36  29  75 W16G28    29.93R
$$

WVZ009-240400-
Northwest West Virginia

CITY           SKY/WX    TMP DP  RH WIND       PRES   REMARKS
PARKERSBURG    LGT RAIN  40  31  70 W12G22    30.03R
$$

WVZ006-240400-
Western West Virginia

CITY           SKY/WX    TMP DP  RH WIND       PRES   REMARKS
HUNTINGTON     CLOUDY    39  29  67 W7        30.06R
$$

WVZ015-240400-
West Central West Virginia

CITY           SKY/WX    TMP DP  RH WIND       PRES   REMARKS
CHARLESTON     CLOUDY    41  27  57 W10       30.04R
$$

WVZ022-031-240400-
North Central West Virginia

CITY           SKY/WX    TMP DP  RH WIND       PRES   REMARKS
CLARKSBURG     CLOUDY    41  28  60 W14       29.96R
MORGANTOWN     CLOUDY    40  28  62 VRB6      29.94R
$$

WVZ025-035-042-045-240400-
Southern West Virginia

CITY           SKY/WX    TMP DP  RH WIND       PRES   REMARKS
BECKLEY        CLOUDY    35  22  58 W16G26    29.99R
LOGAN          CLOUDY    37  27  65 W10       30.04R
BLUEFIELD      CLOUDY    34  23  64 NW10G24   29.98R
LEWISBURG      CLOUDY    37  24  59 NW10G17   29.98R
$$

WVZ047-240400-
Northern Mountains of West Virginia

CITY           SKY/WX    TMP DP  RH WIND       PRES   REMARKS
ELKINS         CLOUDY    37  26  64 W12G22    29.94R
$$

WVZ052-240400-
Eastern Panhandle of West Virginia

CITY           SKY/WX    TMP DP  RH WIND       PRES   REMARKS
MARTINSBURG    MOCLDY    45  27  49 VRB7      29.85R
PETERSBURG       N/A     42  27  55 W20G31    29.90R
$$




USA.gov is the U.S. government's official web portal to all federal, state and local government web resources and services.